EW3456 Weather Reports


time (UTC)temp
C
wind
direction
speed
KPH
gust
KPH
rain 1hr
cm
rain 24hr
cm
rain mn
cm
humidity
%
barometer
mb
20260504080601 8 67 0.0 0.0 0.00 0.00 0.00 89 1016.8
20260504050602 11 67 0.0 0.0 0.00 0.00 0.00 86 1017.1
20260504045601 11 67 0.0 0.0 0.00 0.00 0.00 87 1017.2
20260504044602 11 67 0.0 0.0 0.00 0.00 0.00 87 1017.2
20260504043601 11 67 0.0 0.0 0.00 0.00 0.00 86 1017.3
20260504042601 11 67 0.0 0.0 0.00 0.00 0.00 86 1017.0
20260504041602 11 67 0.0 0.0 0.00 0.00 0.00 86 1017.0
20260504035602 12 67 0.0 0.0 0.00 0.00 0.00 85 1017.0
20260504034601 12 67 0.0 0.0 0.00 0.00 0.00 84 1017.1
20260504033602 12 67 0.0 0.0 0.00 0.00 0.00 83 1017.0
20260504032602 12 67 0.0 0.0 0.00 0.00 0.00 82 1017.0
20260504030601 12 67 0.0 0.0 0.00 0.00 0.00 82 1016.9
20260504025602 13 67 0.0 0.0 0.00 0.00 0.00 80 1016.8
20260504024602 13 67 0.0 0.0 0.00 0.00 0.00 79 1016.7
20260504023602 13 67 0.0 0.0 0.00 0.00 0.00 77 1016.8
20260504022602 13 67 0.0 0.0 0.00 0.00 0.00 78 1016.7
20260504021602 14 67 0.0 0.0 0.00 0.00 0.00 78 1016.6
20260504020602 14 67 0.0 0.0 0.00 0.00 0.00 77 1016.5
20260504014602 15 67 0.0 0.0 0.00 0.00 0.00 72 1016.3
20260504013601 15 67 0.0 0.0 0.00 0.00 0.00 72 1016.2
20260504012601 15 67 0.0 0.0 0.00 0.00 0.00 71 1016.1
20260504010601 16 67 0.0 0.0 0.00 0.00 0.00 68 1016.0
20260504005601 16 67 0.0 0.0 0.00 0.00 0.00 63 1016.0
20260504004601 17 67 0.0 0.0 0.00 0.00 0.00 61 1016.0
20260504002602 17 67 0.0 0.0 0.00 0.00 0.00 57 1015.8
20260504001601 17 67 0.0 0.0 0.00 0.00 0.00 57 1015.6
20260503235601 18 66 0.0 1.6 0.00 0.00 0.00 55 1015.6
20260503233602 18 58 0.0 1.6 0.00 0.00 0.00 54 1015.7
20260503231602 18 34 0.0 1.6 0.00 0.00 0.00 52 1015.8
20260503225602 18 77 0.0 0.0 0.00 0.00 0.00 54 1015.9
20260503224601 18 182 0.0 0.0 0.00 0.00 0.00 53 1016.0
20260503223602 18 209 0.0 4.8 0.00 0.00 0.00 52 1015.9
20260503221602 19 262 0.0 0.0 0.00 0.00 0.00 49 1016.2
20260503215602 19 299 0.0 0.0 0.00 0.00 0.00 46 1016.1
20260503214601 19 263 0.0 3.2 0.00 0.00 0.00 47 1016.1
20260503213601 19 261 0.0 1.6 0.00 0.00 0.00 44 1016.2
20260503212602 19 233 0.0 1.6 0.00 0.00 0.00 46 1016.3
20260503211602 19 271 0.0 1.6 0.00 0.00 0.00 46 1016.3
20260503205602 19 276 0.0 1.6 0.00 0.00 0.00 46 1016.4
20260503203602 19 279 0.0 3.2 0.00 0.00 0.00 45 1016.6
20260503202602 19 257 0.0 3.2 0.00 0.00 0.00 50 1016.9
20260503201601 19 196 0.0 3.2 0.00 0.00 0.00 46 1017.0
20260503195602 19 276 0.0 3.2 0.00 0.00 0.00 50 1017.3
20260503194602 19 281 0.0 1.6 0.00 0.00 0.00 45 1017.5
20260503193602 18 258 0.0 3.2 0.00 0.00 0.00 49 1017.6
20260503191601 18 246 0.0 3.2 0.00 0.00 0.00 49 1018.2
20260503190601 18 342 0.0 1.6 0.00 0.00 0.00 53 1018.3
20260503185601 18 285 0.0 3.2 0.00 0.00 0.00 51 1018.5
20260503184602 18 103 0.0 1.6 0.00 0.00 0.00 49 1018.7
20260503183602 18 309 0.0 3.2 0.00 0.00 0.00 51 1018.6
20260503182602 18 38 0.0 4.8 0.00 0.00 0.00 51 1018.8
20260503181601 18 127 0.0 6.4 0.00 0.00 0.00 49 1018.9
20260503175602 17 270 0.0 3.2 0.00 0.00 0.00 53 1019.0
20260503174601 17 338 0.0 1.6 0.00 0.00 0.00 50 1019.1
20260503173602 17 315 0.0 1.6 0.00 0.00 0.00 55 1019.1
20260503172601 17 276 0.0 1.6 0.00 0.00 0.00 47 1019.2
20260503171601 16 99 0.0 3.2 0.00 0.00 0.00 56 1019.5
20260503170602 16 163 0.0 0.0 0.00 0.00 0.00 56 1019.6
20260503150602 15 118 0.0 3.2 0.00 0.00 0.00 62 1020.6
20260503130602 8 255 0.0 0.0 0.00 0.00 0.00 94 1020.1
20260503110602 6 264 0.0 0.0 0.00 0.00 0.00 92 1019.2
20260503081601 7 264 0.0 0.0 0.00 0.00 0.00 91 1017.2